Location: Cantaing
(50.1487°N, 3.1675°E)
Time: 22:54:00
(UTC+00:00)

Cosmos 2082 Rocket - Pass Details

Date: 17 April 2026
Orbit: 831 x 853 km, 71.0° (Epoch: 19 May)

Event Time Altitude Azimuth Distance (km) Brightness Sun altitude
Exits shadow 03:54:50 - 267° (W) 2,632 4.2 -9.0°
Reaches altitude 10° 03:55:22 10° 270° (W) 2,484 4.1 -8.9°
Maximum altitude 03:59:47 23° 321° (NW) 1,763 3.8 -8.3°
Drops below altitude 10° 04:04:14 10° 12° (NNE) 2,494 5.2 -7.7°
Sets 04:07:16 0° 27° (NNE) 3,433 6.3 -7.2°
